Flag Weather past 2 weeks in Resolute Bay, Nunavut Territory, Canada

Now
1 °F

Snow flurries. Low clouds.


Feels Like: -19 °F
Forecast: 0 / 5 °F
Wind: 18 mph from South

Location: Resolute

Current Time: Oct 31, 2014 at 12:12:14 AM

Latest Report: Oct 30, 2014 at 11:00 PM


Visibility: 15 mi

Pressure: 30.13 "Hg

Humidity: 85%

Dew point: -2 °F

Location of Resolute BayLocation

Historic Weather in Resolute Bay — Graph

°F

Resolute Bay temperature yesterday

Maximum temperature yesterday: 5 °F (at 12:00 PM)
Minimum temperature yesterday: -8 °F (at 1:00 AM)
Average temperature yesterday: 1 °F

Past Weeks' High & Low Weather Summary

 TemperatureHumidityPressure
High32 °F (Oct 21, 8:00 PM)100% (Oct 21, 8:00 PM)30.27 "Hg (Oct 21, 8:00 PM)
Low-15 °F (Oct 21, 4:00 PM)66% (Oct 18, 11:00 PM)29.86 "Hg (Oct 21, 10:00 PM)
Average4 °F84%30.08 "Hg
* Reported Oct 15 11:00 PM — Oct 30 11:00 PM, Resolute Bay, Weather by CustomWeather, © 2014

Note: Actual official high and low records may vary slightly from our data, if they occured in-between our weather recording intervals... More about our weather records

Advertising

Resolute Bay weather history for previous 24 hours

 ConditionsComfort  
Time TempWeatherWind HumidityBarometerVisibility
11:00 PM
Oct 30
1 °FSnow flurries. Low clouds.18 mph85%30.13 "Hg15 mi
10:00 PM1 °FSnow flurries. Low clouds.13 mph85%30.13 "Hg15 mi
9:00 PM1 °FSnow flurries. Low clouds.13 mph85%30.15 "Hg15 mi
8:00 PM1 °FSnow flurries. Low clouds.14 mph85%30.14 "Hg15 mi
7:00 PM3 °FSnow flurries. Low clouds.13 mph85%30.14 "Hg12 mi
6:00 PM3 °FSnow flurries. Low clouds.6 mph92%30.14 "Hg12 mi
5:00 PM5 °FLight snow. Low clouds.12 mph85%30.14 "Hg12 mi
4:00 PM5 °FSnow flurries. Low clouds.10 mph85%30.14 "Hg12 mi
3:00 PM5 °FSnow flurries. Low clouds.6 mph85%30.13 "Hg13 mi
2:00 PM5 °FSnow flurries. Low clouds.9 mph85%30.12 "Hg10 mi
1:00 PM5 °FSnow flurries. Low clouds.6 mph85%30.11 "Hg10 mi
12:00 PM5 °FLight snow. Low clouds.6 mph85%30.11 "Hg13 mi
11:00 AM3 °FLight snow. Low clouds.2 mph85%30.11 "Hg12 mi
10:00 AM3 °FLight snow. Low clouds.2 mph85%30.10 "Hg15 mi
9:00 AM1 °FLight snow. Low clouds.3 mph85%30.10 "Hg15 mi
8:00 AM1 °FLight snow. Low clouds.3 mph85%30.10 "Hg15 mi
7:00 AM-2 °FLight snow. Overcast.7 mph84%30.10 "Hg15 mi
6:00 AM-4 °FLight snow. Mostly cloudy.9 mph84%30.09 "Hg15 mi
5:00 AM-2 °FPassing clouds.9 mph84%30.08 "Hg15 mi
4:00 AM-8 °FPassing clouds.12 mph84%30.07 "Hg15 mi
3:00 AM-8 °FPassing clouds.9 mph84%30.07 "Hg15 mi
2:00 AM-4 °FClear.6 mph92%30.06 "Hg15 mi
1:00 AM-8 °FPassing clouds.9 mph84%30.04 "Hg15 mi
12:00 AM-2 °FPassing clouds.9 mph77%30.03 "Hg15 mi
Weather by CustomWeather, © 2014

See weather overviewHow to use our weather pages